Wind_Speed
6 2 3 5 7 5 9 11 5 5 4 5 8 8 8 7 7 6 6 7 9 12 12 7 6 8 10 12 16 17 16 16 18 19 23 23 26 29 32 32 32 33 33 35 33
12 8 4 3 5 6 6 7 10 6 3 5 7 8 7 6 6 5 6 7 8 10 10 8 10 11 11 10 9 12 15 19 21 22 25 27 29 30 30 31 31 31 33 31 29
18 14 10 6 5 5 6 6 8 9 7 6 7 9 7 6 6 6 7 9 9 11 14 14 12 9 8 9 9 7 9 10 13 18 21 23 25 27 28 30 31 30 28 26 28
24 21 17 12 8 7 7 9 9 9 10 9 9 10 7 7 9 10 11 12 13 17 16 13 12 11 13 13 11 10 9 9 8 9 13 16 18 20 20 20 21 22 24 23 24
31 28 24 19 14 11 9 10 11 11 11 11 12 11 11 11 12 16 17 17 17 16 15 16 16 16 17 15 14 15 14 12 10 7 6 9 12 14 14 15 16 17 16 14 15
38 34 31 26 21 17 14 11 14 14 14 13 14 15 16 14 17 21 22 21 20 18 19 21 22 22 21 19 19 20 19 18 14 13 14 11 9 7 5 5 6 7 10 11 10
43 41 37 33 28 24 19 16 15 17 17 14 14 16 17 18 20 21 22 22 20 19 20 23 26 26 26 27 27 25 25 22 21 19 18 17 17 18 13 10 9 7 6 6 5
48 46 43 40 36 31 26 22 19 20 21 18 15 18 20 20 20 23 24 22 21 20 20 23 25 24 23 25 25 25 27 30 29 27 25 24 21 17 16 15 17 18 15 11 9
53 52 49 46 43 39 33 29 26 23 24 23 20 19 19 20 21 25 26 23 21 21 21 23 26 26 27 26 26 26 25 27 26 27 28 28 27 28 26 21 21 25 24 21 18
58 57 55 52 50 46 41 36 32 30 27 28 25 23 21 22 23 24 25 22 20 24 25 24 23 24 27 26 27 30 30 30 24 23 22 26 27 28 30 29 30 29 30 30 28
63 62 60 59 55 53 49 44 40 36 34 30 30 26 26 26 24 24 23 22 22 25 25 25 24 23 22 23 24 26 31 32 28 27 25 25 27 30 28 26 25 28 30 30 29
68 67 65 63 62 59 56 52 47 43 38 37 34 31 30 29 28 26 25 26 26 25 25 26 26 24 22 20 19 24 25 28 27 25 25 24 26 27 31 32 29 28 27 27 25
72 71 71 68 66 66 62 59 55 50 45 41 40 36 35 33 32 30 30 29 28 28 25 25 26 24 22 22 21 20 23 23 22 21 21 21 20 23 24 26 27 26 22 22 22
76 76 75 75 71 70 69 67 63 58 52 48 45 43 41 39 36 35 34 29 29 31 27 23 23 22 21 19 19 20 21 22 23 19 19 17 16 16 19 20 20 19 21 19 19
77 80 80 79 78 75 74 73 70 66 60 55 49 46 45 42 42 39 38 35 33 31 31 32 27 24 22 20 19 17 17 18 21 20 18 18 18 15 16 18 16 13 12 12 12
74 80 85 84 83 82 80 79 77 74 64 59 55 51 49 49 48 44 42 40 37 34 35 28 25 23 20 18 19 19 16 15 10 14 15 16 16 16 15 16 17 15 14 10 8
81 81 84 89 89 87 87 84 83 76 69 66 63 59 56 55 51 49 43 38 36 36 35 33 29 27 24 22 19 17 14 14 13 8 5 7 11 12 12 12 12 11 12 13 12
89 88 85 89 93 94 92 91 84 77 76 74 71 68 63 61 57 54 50 46 44 44 44 41 34 30 29 28 25 20 17 14 9 10 7 4 2 4 6 6 5 4 5 6 7
98 94 93 91 94 98 98 91 84 83 82 81 80 76 72 68 63 59 52 50 49 47 47 44 42 37 36 33 27 23 21 16 14 14 11 9 7 6 4 2 2 4 6 7 9
108 103 101 96 96 97 100 92 91 90 90 87 86 83 79 75 70 64 59 56 53 52 51 51 47 43 42 35 28 25 22 19 21 20 18 16 15 12 10 9 9 9 11 13 13
120 113 106 106 102 98 96 96 97 94 98 93 90 88 85 81 77 72 67 64 61 59 55 53 51 48 42 33 30 29 27 27 27 25 24 22 19 17 15 14 14 15 16 17 18
127 125 117 113 107 98 95 95 101 100 102 99 94 90 90 88 83 79 73 71 70 67 61 59 57 52 45 44 39 36 33 31 27 28 25 24 23 23 22 19 18 19 20 23 25
127 126 126 121 112 104 100 98 98 101 103 102 101 97 93 91 88 85 81 80 76 72 67 65 59 58 55 45 42 37 36 34 32 31 32 28 27 27 28 26 24 24 26 28 29
141 132 130 126 121 110 104 103 97 99 104 108 105 101 98 95 93 90 87 86 81 79 76 71 69 62 56 52 50 45 40 38 37 35 34 32 32 28 33 33 31 30 30 33 35
141 141 133 133 128 122 108 104 104 98 102 107 109 105 103 100 95 95 94 91 89 87 81 75 69 66 65 59 53 49 47 47 42 39 36 38 37 35 35 36 36 33 33 36 38
123 144 143 135 129 124 117 109 108 107 102 101 108 110 108 105 103 100 100 97 95 90 86 81 74 73 69 64 60 57 53 48 44 43 40 40 38 41 40 39 37 37 39 42 44
103 133 147 140 135 129 125 118 112 107 101 101 105 114 110 109 106 100 100 96 94 93 89 85 80 77 72 70 68 63 53 50 50 48 45 44 45 47 45 45 43 44 46 48 51
Wind_Direction
247 252 109 98 118 123 141 158 173 156 136 132 125 122 128 137 143 141 138 141 145 159 147 145 170 187 194 193 199 200 203 206 208 209 222 227 234 235 235 235 239 244 244 243 252
236 236 221 157 127 136 145 157 175 196 180 150 136 137 148 150 152 162 157 149 140 142 154 170 173 192 201 183 179 196 208 209 216 219 219 223 227 231 234 237 235 239 247 245 251
231 233 229 215 175 155 156 163 171 185 200 187 163 158 168 162 163 169 159 145 138 137 154 172 180 161 149 149 128 149 166 191 209 217 216 218 220 221 225 228 232 238 243 246 251
230 232 229 223 212 185 172 166 172 180 187 190 176 168 174 166 164 163 147 140 138 140 148 149 135 130 137 131 117 103 125 139 156 189 207 209 213 215 219 222 226 230 232 236 240
227 229 231 226 217 208 189 181 173 179 187 186 183 173 170 166 162 147 141 139 133 129 129 129 131 122 109 111 109 103 101 104 106 104 168 193 201 207 214 223 228 228 231 239 244
226 226 227 227 222 214 202 188 182 182 189 191 178 167 167 158 158 147 139 134 127 123 120 121 118 111 107 101 97 92 86 86 91 91 90 103 125 140 177 224 238 241 244 238 237
225 225 225 226 224 219 209 200 184 185 189 190 173 169 169 159 160 144 138 130 122 115 115 116 111 109 105 99 90 86 84 85 90 91 92 92 94 97 99 109 114 129 156 172 186
225 224 224 224 224 221 214 206 198 189 191 190 176 165 168 164 158 146 142 139 132 124 119 124 120 117 110 103 100 95 92 88 86 87 88 87 86 90 90 93 89 86 89 99 117
225 224 222 222 223 223 217 211 204 198 195 194 189 182 165 164 162 155 150 153 149 144 133 122 116 115 112 108 107 101 99 94 91 89 87 84 80 77 79 80 82 82 83 82 85
229 224 222 221 221 222 220 214 209 204 200 198 196 193 179 174 174 168 161 165 161 150 141 132 124 117 110 109 108 106 100 93 94 93 91 89 90 88 88 87 86 89 90 86 84
230 227 223 222 220 221 220 218 213 208 205 201 201 199 198 190 187 182 176 175 169 159 147 137 127 120 114 117 113 105 104 99 94 93 93 96 97 93 92 91 89 91 88 87 82
230 229 225 222 220 219 220 218 217 212 207 206 201 201 204 198 200 195 193 188 180 173 160 147 138 131 125 118 112 108 105 106 107 102 96 87 84 86 88 88 89 83 79 79 78
229 227 227 224 221 220 219 218 217 214 210 207 206 200 206 205 205 204 204 200 187 180 173 156 146 141 136 131 124 114 111 111 109 106 100 95 90 88 87 90 89 82 73 73 70
228 227 225 226 222 220 220 219 217 215 212 209 207 204 206 208 209 209 209 206 199 187 178 167 158 151 145 141 135 127 122 119 115 113 109 106 100 95 92 86 84 84 80 70 69
229 227 225 223 224 221 220 220 217 216 212 211 208 207 206 210 213 213 211 206 206 197 188 184 175 169 160 155 148 142 135 128 126 121 117 112 103 96 88 92 98 101 93 91 81
233 228 226 222 221 222 220 220 219 217 213 212 212 208 208 210 214 218 213 209 206 203 205 193 183 178 177 174 167 161 157 144 131 127 129 122 110 107 101 92 86 87 88 92 82
231 231 227 223 221 220 222 219 219 216 215 214 212 211 208 211 211 214 212 213 211 204 206 201 195 193 194 189 187 180 183 172 156 152 149 132 121 111 94 85 78 63 63 64 57
232 229 228 226 220 220 220 220 218 217 217 215 212 214 211 211 213 212 210 210 209 206 204 207 201 201 204 203 199 192 196 200 174 192 189 205 174 128 122 105 82 63 39 30 30
230 229 228 226 223 219 219 219 217 217 218 216 215 213 212 213 213 214 211 210 209 209 206 210 209 208 212 209 205 203 210 204 205 219 218 213 234 248 259 245 267 308 320 339 345
232 227 227 226 224 221 218 216 216 215 219 217 217 213 213 213 212 214 214 210 212 212 208 207 212 212 219 216 214 216 218 218 218 220 229 232 229 233 250 270 281 291 307 317 324
230 229 224 224 224 222 217 215 215 215 219 217 217 216 214 213 214 211 213 211 213 212 213 212 215 220 220 223 224 226 227 226 229 228 231 239 244 249 249 258 274 291 298 301 305
225 227 226 223 222 220 219 217 213 213 216 217 217 217 216 215 214 214 213 215 213 215 214 216 218 221 219 222 225 230 232 238 242 248 246 249 253 257 261 268 275 284 292 296 301
215 218 222 224 220 218 217 218 215 213 215 217 217 216 217 216 215 214 214 216 218 218 218 219 219 220 224 222 228 232 236 235 240 246 249 253 256 266 271 276 279 285 289 290 294
210 211 215 218 221 217 216 216 216 216 213 217 216 217 217 217 216 215 215 217 219 220 219 220 220 220 225 226 225 228 233 236 234 239 249 255 263 265 275 280 283 288 290 291 295
213 208 210 212 216 214 216 214 216 217 215 215 216 216 217 217 217 217 216 217 218 222 222 222 224 225 226 227 228 226 228 234 237 239 245 253 265 268 268 275 284 287 287 288 291
211 211 206 210 209 215 215 215 213 214 216 215 216 216 216 216 217 216 217 217 218 221 223 224 223 226 228 229 230 230 230 235 240 245 250 252 254 258 264 267 269 274 276 279 284
211 211 209 207 207 209 214 215 214 212 215 217 217 216 215 217 218 217 220 222 222 223 224 224 226 228 229 230 232 232 234 235 236 240 242 245 247 251 255 258 262 265 270 273 277
Height
10955 10956 10957 10957 10956 10957 10958 10959 10959 10959 10960 10961 10962 10963 10963 10963 10964 10965 10966 10968 10970 10971 10972 10973 10973 10974 10976 10977 10979 10980 10982 10983 10985 10988 10990 10992 10994 10996 10999 11001 11004 11005 11007 11008 11009
10954 10955 10956 10957 10956 10957 10958 10959 10959 10959 10960 10961 10962 10963 10963 10964 10964 10965 10967 10968 10970 10971 10973 10972 10972 10972 10973 10975 10977 10977 10978 10980 10982 10983 10986 10988 10990 10991 10993 10995 10997 10999 11001 11001 11002
10952 10953 10954 10956 10957 10956 10957 10958 10958 10959 10960 10961 10962 10963 10963 10964 10964 10965 10967 10968 10969 10971 10972 10971 10971 10972 10973 10974 10975 10975 10976 10977 10978 10980 10981 10982 10984 10986 10988 10990 10991 10992 10993 10994 10995
10948 10950 10952 10954 10956 10956 10956 10957 10958 10959 10959 10960 10961 10963 10963 10964 10965 10966 10967 10968 10970 10970 10971 10971 10971 10972 10972 10973 10974 10974 10974 10975 10976 10976 10977 10978 10980 10982 10983 10985 10987 10988 10989 10991 10993
10943 10946 10948 10951 10953 10955 10956 10956 10957 10958 10959 10960 10961 10962 10963 10964 10965 10967 10968 10969 10970 10971 10972 10972 10972 10972 10973 10974 10975 10975 10975 10975 10975 10975 10975 10976 10977 10980 10982 10983 10984 10986 10988 10989 10990
10936 10940 10943 10946 10949 10952 10954 10955 10956 10957 10958 10959 10961 10962 10963 10964 10966 10968 10970 10971 10973 10973 10973 10973 10973 10973 10974 10975 10976 10975 10975 10975 10975 10976 10976 10976 10977 10978 10980 10980 10983 10984 10985 10985 10986
10928 10932 10936 10940 10944 10947 10951 10953 10954 10955 10957 10958 10960 10962 10963 10965 10967 10969 10971 10973 10974 10975 10975 10975 10975 10976 10977 10977 10977 10978 10978 10977 10977 10978 10978 10978 10979 10978 10979 10980 10980 10981 10981 10982 10982
10918 10923 10929 10934 10938 10942 10946 10949 10952 10953 10955 10957 10960 10962 10963 10965 10968 10971 10972 10974 10977 10978 10979 10979 10979 10980 10981 10979 10980 10982 10982 10981 10980 10980 10980 10979 10980 10980 10980 10981 10980 10980 10981 10982 10982
10906 10913 10919 10925 10930 10934 10939 10944 10947 10950 10952 10955 10958 10961 10963 10965 10969 10971 10973 10976 10978 10981 10982 10982 10982 10983 10983 10982 10984 10984 10984 10982 10983 10984 10983 10983 10982 10982 10983 10984 10983 10982 10984 10984 10985
10894 10901 10908 10914 10920 10926 10932 10937 10942 10945 10948 10952 10956 10959 10962 10964 10967 10971 10973 10976 10979 10981 10982 10983 10984 10985 10984 10986 10987 10985 10985 10984 10987 10988 10988 10987 10988 10988 10988 10990 10989 10987 10987 10988 10989
10879 10887 10896 10903 10909 10916 10922 10929 10934 10939 10944 10948 10951 10956 10958 10961 10965 10969 10972 10975 10978 10982 10983 10984 10985 10986 10987 10989 10990 10988 10987 10988 10991 10992 10992 10992 10992 10992 10993 10994 10994 10993 10992 10992 10993
10864 10872 10881 10890 10897 10904 10911 10919 10925 10932 10937 10942 10947 10951 10954 10958 10962 10966 10970 10973 10976 10979 10982 10983 10986 10988 10990 10992 10992 10991 10990 10991 10994 10996 10996 10997 10996 10995 10996 10997 10997 10996 10995 10996 10996
10846 10854 10865 10874 10883 10891 10898 10906 10913 10921 10929 10935 10940 10947 10949 10954 10958 10962 10966 10969 10975 10977 10980 10983 10985 10988 10990 10992 10993 10994 10994 10994 10996 10998 10998 11000 11001 11000 10999 11000 11000 10998 10998 10998 10999
10824 10835 10845 10857 10868 10876 10885 10891 10901 10910 10919 10926 10932 10939 10944 10947 10953 10957 10962 10968 10972 10975 10978 10981 10984 10987 10990 10992 10994 10996 10997 10998 10998 11000 11000 11002 11003 11004 11003 11002 11002 11002 11001 11001 11001
10803 10813 10824 10836 10848 10859 10867 10876 10886 10895 10906 10916 10925 10932 10938 10945 10945 10951 10956 10962 10967 10973 10976 10976 10980 10983 10987 10990 10993 10997 10999 11000 11001 11002 11003 11004 11004 11005 11005 11005 11005 11005 11005 11005 11004
10782 10790 10801 10815 10826 10839 10849 10858 10869 10880 10899 10908 10917 10925 10931 10934 10938 10944 10950 10955 10961 10967 10970 10978 10982 10983 10986 10989 10991 10994 10998 10999 11002 11004 11005 11006 11006 11007 11007 11006 11006 11007 11007 11007 11005
10759 10768 10778 10790 10805 10815 10826 10839 10850 10874 10888 10896 10904 10912 10919 10923 10931 10936 10946 10954 10959 10963 10968 10972 10977 10981 10984 10986 10988 10991 10996 10998 10999 11003 11007 11007 11006 11007 11007 11007 11006 11007 11007 11006 11006
10732 10744 10753 10763 10780 10791 10803 10818 10842 10863 10871 10881 10889 10896 10907 10912 10921 10927 10935 10943 10949 10954 10958 10963 10971 10975 10978 10981 10984 10986 10992 10996 10995 11001 11005 11006 11005 11006 11007 11007 11008 11008 11008 11008 11007
10701 10716 10727 10739 10752 10766 10780 10805 10833 10842 10848 10860 10869 10880 10890 10901 10910 10918 10930 10935 10939 10946 10954 10958 10962 10966 10970 10975 10982 10985 10989 10992 10994 10998 11001 11003 11004 11004 11005 11005 11005 11006 11006 11006 11005
10663 10685 10695 10711 10724 10739 10762 10793 10804 10817 10826 10839 10852 10864 10875 10885 10898 10908 10918 10926 10932 10937 10942 10947 10952 10958 10961 10971 10979 10982 10986 10989 10992 10995 10997 11000 11001 11001 11002 11002 11003 11003 11001 11000 11001
10619 10644 10667 10680 10695 10716 10751 10768 10780 10797 10800 10817 10832 10847 10858 10871 10883 10894 10904 10911 10918 10925 10933 10940 10946 10950 10959 10969 10972 10974 10979 10982 10986 10991 10992 10994 10997 10997 10998 10999 10999 10998 10997 10996 10996
10569 10599 10628 10648 10671 10701 10721 10740 10754 10770 10778 10797 10814 10829 10841 10854 10867 10879 10891 10897 10902 10910 10923 10930 10934 10943 10954 10956 10962 10966 10971 10975 10980 10983 10987 10989 10991 10991 10992 10994 10995 10994 10993 10990 10989
10521 10558 10586 10613 10646 10672 10694 10710 10732 10746 10762 10776 10791 10806 10822 10838 10851 10864 10874 10878 10887 10899 10910 10917 10928 10933 10938 10953 10957 10963 10966 10970 10971 10974 10977 10981 10982 10983 10984 10986 10987 10987 10987 10985 10984
10481 10513 10544 10576 10608 10649 10664 10688 10706 10719 10737 10750 10769 10790 10804 10818 10835 10848 10858 10863 10876 10884 10893 10904 10910 10925 10934 10942 10946 10952 10959 10962 10964 10967 10969 10972 10973 10976 10975 10976 10978 10980 10979 10976 10975
10449 10478 10508 10539 10571 10606 10645 10665 10685 10700 10717 10729 10747 10768 10783 10798 10816 10827 10838 10848 10857 10865 10880 10894 10907 10916 10920 10930 10938 10946 10949 10952 10958 10961 10966 10964 10967 10970 10972 10971 10970 10971 10971 10969 10967
10422 10448 10475 10509 10548 10582 10614 10640 10659 10670 10692 10715 10729 10744 10759 10777 10790 10803 10815 10830 10838 10854 10867 10881 10897 10902 10910 10921 10929 10936 10942 10949 10954 10957 10960 10961 10963 10961 10963 10965 10967 10966 10964 10962 10961
10398 10423 10450 10482 10515 10549 10578 10605 10631 10662 10684 10697 10705 10714 10741 10752 10772 10796 10799 10819 10837 10843 10858 10871 10882 10892 10903 10910 10914 10923 10939 10945 10947 10949 10952 10954 10953 10952 10954 10956 10958 10957 10957 10954 10952